Terug naar catalogus

STARLINK-34055

ActiefCommunicatieVLEO
NORAD 63819·PAYLOAD·🇺🇸 United States

Gelanceerd May 4, 2025 vanaf Cape Canaveral Space Force Station

Loading…

Volgende Passages (komende 24 uur)

TLE

VersSource: CelesTrak SupGP

Epoch: Sep 15, 2026, 04:06 UTC

1 63819C 25092R   26258.17131944  .00488700  00000+0  57323-2 0  2584
2 63819  42.9995 169.8775 0019512 209.4184 305.6914 15.60098741    16

Volg STARLINK-34055 in realtime met AllMySat

Download on the App Store